www.pogodaiklimat.ru

Погода и климат >> Архив погоды >> Корея >> Мунсан


ПОГОДА в Мунсане

  • Прогноз погоды в Мунсане
  • Монитор погоды в Мунсане

АРХИВ ПОГОДЫ в Мунсане

Время (UTC), дата Ветер
(напр.,м/с)
 
Видим.   Явления Облачность Т
(С)
Тd
(С)
f
(%)
Тe
(С)
Тes
(С)
Комфортность P
(гПа)
Po
(гПа)
Тmin
(С)
Tmax
(С)
R
(мм)
R24
(мм)
S
(см)
03 12.08 Ю 1 50 км 10// 300 м
[]
+27.0 +25.9 94 +40 +51 опасность
солнечного
удара
1000.4 997.0
06 12.08 Ю 2 18 км 4/4 200 м
[]
+26.5 +25.9 97 +40 +47 очень
душно
1000.5 997.1 10
09 12.08 ЮВ 2 17 км 9// 600 м
[]
+27.8 +26.0 90 +42 +43 опасность
перегрева
1000.3 996.9
12 12.08 20 км 9/9 300 м
[]
+25.9 +25.3 96 1001.8 998.3 +29.1 11
15 12.08 12 км н/о +25.2 +25.0 99 +36 +36 очень
душно
1002.0 998.5
18 12.08 Ю 1 17 км ?/? +25.7 +25.1 96 +37 +37 очень
душно
1001.6 998.1
21 12.08 28 км н/о +23.5 +23.4 99 +32 +32 очень
душно
1003.4 999.9
00 13.08 В 2 18 км 8/8 200 м
[]
+24.1 +23.5 96 +32 +34 очень
душно
1004.0 1000.5 +23.3 10
03 13.08 В 3 40 км 9// 1000 м
[]
+26.7 +24.9 90 +38 +46 очень
душно
1003.8 1000.4
06 13.08 В 1 19 км 6/6 600 м
[]
+31.2 +26.2 75 +47 +53 опасность
перегрева
1002.3 998.9
09 13.08 С 1 16 км 6/1
[]
+30.7 +26.4 78 +47 +48 опасность
перегрева
1001.6 998.2
12 13.08 штиль 0 27 км 4/0 2000 м
[]
+27.0 +26.6 98 +42 +42 опасность
перегрева
1002.8 999.4 +31.6 1
15 13.08 Ю 1 50 км 10// 300 м
[]
+24.2 +24.0 99 +33 +33 очень
душно
1003.5 1000.0
18 13.08 В 2 20 км 5/5 600 м
[]
+23.8 +23.4 98 +32 +32 очень
душно
1003.1 999.6
21 13.08 штиль 0 18 км 3/1
[]
+23.7 +23.5 99 +32 +32 очень
душно
1002.8 999.3
00 14.08 В 2 24 км 5/0
[]
+28.2 +25.6 86 +42 +48 опасность
перегрева
1002.1 998.7 +23.6 5
03 14.08 ЮВ 1 26 км 4/3 1000 м
[]
+31.8 +25.3 69 +46 +60 опасность
перегрева
1000.7 997.3
06 14.08 В 1 13 км 8/8 1500 м
[]
+32.7 +26.2 69 +49 +52 опасность
перегрева
999.3 995.9
09 14.08 СВ 2 14 км 9// 1000 м
[]
+28.9 +25.5 82 +43 +43 опасность
перегрева
998.2 994.8
12 14.08 В 4 40 км 8/0 2000 м
[]
+27.5 +24.5 84 +39 +39 очень
душно
998.5 995.1 +33.5 0.0
15 14.08 19 км н/о +26.0 +23.8 88 +36 +36 очень
душно
997.9 994.5
18 14.08 В 2 17 км ?/? +25.5 +22.5 83 +33 +33 очень
душно
997.1 993.7
21 14.08 В 2 18 км 10// 2000 м
[]
+25.1 +22.3 84 +33 +33 очень
душно
995.9 992.5
00 15.08 СВ 3 30 км 9/0 2000 м
[]
+26.1 +22.9 83 +35 +39 очень
душно
995.4 992.0 +24.2 0.9
03 15.08 В 2 40 км 10/10 600 м
[]
+25.3 +23.5 90 +34 +34 очень
душно
994.6 991.2
06 15.08 В 3 35 км 8/8 200 м
[]
+24.1 +23.5 96 +32 +34 очень
душно
993.4 990.0
09 15.08 В 3 30 км 9/8 300 м
[]
+24.9 +22.9 89 +33 +33 очень
душно
991.7 988.3
12 15.08 В 1 18 км 9/0
[]
+23.1 +22.0 94 +31 +31 очень
душно
992.0 988.6 +27.5 8
15 15.08 штиль 0 20 км 4/0
[]
+21.2 +21.1 99 +27 +27 душно 992.3 988.8
18 15.08 штиль 0 16 км 4/0 2000 м
[]
+21.5 +21.4 99 +27 +27 душно 992.5 989.0
21 15.08 19 км н/о +22.0 +21.9 99 +29 +29 очень
душно
993.5 990.0
00 16.08 ЮЗ 4 12 км 6/6 600 м
[]
+24.7 +22.5 88 +32 +35 очень
душно
994.2 990.8 +21.0 0.0
03 16.08 З 2 45 км 6/6 300 м
[]
+28.3 +25.1 83 +41 +48 опасность
перегрева
994.1 990.7
06 16.08 З 4 20 км 5/5 600 м
[]
+28.6 +24.3 78 +40 +44 очень
душно
994.4 991.0 2
09 16.08 З 3 17 км 3/1 600 м
[]
+28.2 +23.3 75 +38 +39 очень
душно
995.8 992.4
12 16.08 ЮЗ 3 18 км 3/0
[]
+24.0 +22.7 92 +31 +31 очень
душно
998.0 994.6 +29.8 2
15 16.08 З 2 14 км 3/1 600 м
[]
+24.1 +22.7 92 +32 +32 очень
душно
999.4 996.0
18 16.08 З 1 15 км 6/6 300 м
[]
+23.1 +22.7 98 +32 +32 очень
душно
1000.1 996.6
21 16.08 29 км н/о +22.2 +21.3 95 +29 +29 очень
душно
1000.3 996.8
00 17.08 З 3 23 км 8/8 600 м
[]
+25.6 +22.2 82 +33 +35 очень
душно
1001.3 997.8 +22.2 0.0
03 17.08 З 3 20 км 6/6 600 м
[]
+27.7 +21.4 69 +35 +41 очень
душно
1000.9 997.5
06 17.08 СЗ 2 19 км 3/3 1000 м
[]
+28.2 +20.7 64 +35 +43 очень
душно
1000.2 996.8
09 17.08 З 3 17 км ясно +26.8 +19.4 64 +32 +33 очень
душно
1000.8 997.4
12 17.08 З 1 19 км ясно +23.0 +19.7 82 +30 +30 очень
душно
1003.2 999.7
15 17.08 штиль 0 19 км ясно +20.0 +19.8 99 +23 +23 комфорт 1004.5 1001.0
18 17.08 Ю 1 20 км ясно +20.0 +19.6 98 +25 +25 комфорт 1005.0 1001.5
21 17.08 штиль 0 11 км 3/3 600 м
[]
+19.2 +19.1 99 +21 +21 комфорт 1006.1 1002.6
00 18.08 СЗ 1 13 км ясно +23.7 +21.0 85 +30 +39 очень
душно
1007.3 1003.8 +18.9 0.0
03 18.08 З 2 20 км 6/3 1000 м
[]
+26.5 +20.1 68 +33 +42 очень
душно
1007.7 1004.2
06 18.08 З 2 22 км 5/0
[]
+28.4 +17.8 53 +33 +42 очень
душно
1006.8 1003.4
09 18.08 С 2 17 км ясно +26.9 +20.9 70 +34 +35 очень
душно
1006.6 1003.1
12 18.08 Ю 2 18 км 6/0 2000 м
[]
+22.3 +21.1 93 +29 +29 очень
душно
1008.4 1004.9 +29.1 0.0
15 18.08 В 1 17 км 3/0
[]
+20.7 +20.5 99 +27 +27 душно 1009.1 1005.6
18 18.08 штиль 0 14 км 5/0
[]
+19.7 +19.6 99 +22 +22 комфорт 1009.7 1006.2
21 18.08 В 1 5000 м 5/3
[]
+19.2 +19.1 99 +22 +22 комфорт 1010.5 1007.0
00 19.08 В 2 35 км 8/0
[]
+22.8 +20.8 88 +30 +34 очень
душно
1010.9 1007.4 +18.8 0.0

 

Местоположение метеостанции Мунсан (Корея): широта 37.88 долгота 126.76 высота над уровнем моря 31 м.

В архиве по умолчанию представлена погода в Мунсане за последнюю неделю. Архивные данные за месяц целиком и за предыдущие месяцы, начиная с января 2011 года, Вы можете получить, выбрав интересующий диапазон дат из раскрывающегося списка и нажав кнопку "Ввод!".


*Определитесь, кто Вы:
робот инопланетянин человек

Внимание! Время в таблицах - всемирное. Для получения местного времени необходимо прибавить поправку, которая равна 9 ч.

Смотрите также архив погоды в соседних городах и на ближайших метеорологических станциях:

Погода в Кэсоне (КНДР) (20 км)
Погода в Тондучхоне (Корея) (26 км)
Погода в Сеуле (Корея) (39 км)
Погода в Инчхоне (Корея) (47 км)
Погода в Чхорвоне (Корея) (56 км)
Погода в Букчунчеоне (Корея) (61 км)
Погода в Сувоне (Корея) (71 км)
Погода в Сингяе (КНДР) (72 км)
Погода в Пхенганге (КНДР) (75 км)
Погода в Чунчоне (Корея) (83 км)

Пояснения к столбцам:

Ветер - указаны скорость ветра в м/с - средняя за 10 мин, порывы в срок и между сроками (в фигурных скобках) и направление, откуда дует ветер: С - северный, СВ - северо-восточный, В - восточный, ЮВ - юго-восточный, Ю - южный, ЮЗ - юго-западный, З - западный, СЗ - северо-западный.
Видимость - горизонтальная дальность видимости в метрах или километрах. При видимости от 1 до 10 км при отсутствии осадков обычно наблюдается дымка, при ухудшении видимости до 1 км и менее - туман. В сухую погоду видимость может ухудшаться дымом, пылью или мглою.
Явления - указаны атмосферные явления, наблюдавшиеся в срок или в последний час перед сроком; фигурными скобками обозначены явления, наблюдавшиеся между сроками (за 1-3 часа до срока); квадратными скобками обозначены град или гололедные отложения с указанием их диаметра в мм.
Облачность - указаны через наклонную черту общая и нижняя облачность в баллах и высота нижней границы облаков в метрах; квадратными скобками обозначены формы облаков: Ci - перистые, Cs - перисто-слоистые, Cc - перисто-кучевые, Ac - высококучевые, As - высокослоистые, Sc - слоисто-кучевые, Ns - слоисто-дождевые, Cu - кучевые, Cb - кучево-дождевые. Подробнее классификацию облаков см. в Атласе облаков (PDF).
T - Температура воздуха - температура, измеренная на высоте 2 м над землей.
Td - Температура точки росы - температура, при понижении до которой содержащийся в воздухе водяной пар достигнет насыщения.
f - Относительная влажность воздуха - влажноcть воздуха, измеренная на высоте 2 м над землей.
Te - Эффективная температура - температура, которую ощущает одетый по сезону человек в тени. Характеристика душности погоды. При расчете учитывается влияние влажности воздуха и скорости ветра на теплоощущения человека.
Tes - Эффективная температура на солнце - температура, которую ощущает человек, с поправкой на солнечный нагрев. Характеристика знойности погоды. Зависит от высоты солнца над горизонтом, облачности и скорости ветра. Ночью, в пасмурную погоду, а также при ветре 12 м/с и более поправка равна нулю.
P - Атмосферное давление - приведенное к уровню моря атмосферное давление.
Po - Атмосферное давление - измеренное на уровне метеостанции атмосферное давление.
Tmin - Минимальная температура - минимум температуры воздуха на высоте 2 м над землей.
Tmax - Максимальная температура - максимум температуры воздуха на высоте 2 м над землей.
R - Количество осадков - Количество выпавших осадков за период времени, мм. При наведении курсора мыши на число - период времени, за который выпало указанное количество осадков.
R24 - Количество осадков - Количество выпавших осадков за 24 часа, мм.
S - Снежный покров - Высота снежного покрова, см. При наведении курсора мыши на число - состояние снежного покрова и степень покрытия местности в баллах.